Regional Weather Roundup
Issued by NWS

Home | Current Version | Previous Version | Graphics & Text | Print | Product List | Glossary On
Versions: 1 2 3 4 5 6 7 8 9 10 11 12 13 14 15 16 17 18 19 20 21 22 23 24 25 26 27 28 29 30 31 32 33 34 35 36 37 38 39 40 41 42 43 44 45 46 47 48 49 50
000
ASUS43 KMKX 240111
RWRWI

WISCONSIN REGIONAL WEATHER ROUNDUP
NATIONAL WEATHER SERVICE MILWAUKEE/SULLIVAN WI
800 PM CDT FRI JUN 23 2017

NOTE: "FAIR" INDICATES FEW OR NO CLOUDS BELOW 12,000 FEET WITH NO
SIGNIFICANT WEATHER AND/OR OBSTRUCTIONS TO VISIBILITY.

WIZ001-002-006>008-014>016-023>028-240200-
NORTHWEST WISCONSIN

CITY           SKY/WX    TMP DP  RH WIND       PRES   REMARKS
SUPERIOR ARPT  NOT AVBL
ASHLAND        CLEAR     66  49  54 W13       29.75R
HAYWARD        CLOUDY    60  55  83 W5        29.81R
SIREN          CLOUDY    62  55  77 NW9       29.84R
CUMBERLAND     PTCLDY    61  50  67 NW14G22   29.84R
RICE LAKE      CLOUDY    64  50  61 W10       29.84R
CHETEK         MOCLDY    62  55  76 W5        29.82S
LADYSMITH      PTCLDY    66  53  62 W13G18    29.81R
EAU CLAIRE     MOCLDY    66  51  58 W10       29.81R
MENOMONIE      PTCLDY    66  49  53 W18       29.83R
NEW RICHMOND   CLOUDY    65  50  57 NW13G18   29.85R
OSCEOLA        CLOUDY    65  53  63 W8        29.87S
$$

WIZ003>005-009-010-017-018-240200-
NORTH CENTRAL WISCONSIN

CITY           SKY/WX    TMP DP  RH WIND       PRES   REMARKS
MANITOWISH WTR MOCLDY    63  50  63 NW5       29.75S
ARBOR VITAE    PTCLDY    63  49  59 NW3       29.76R
WOODRUFF       PTCLDY    63  49  59 NW3       29.76R
RHINELANDER    CLOUDY    64  48  56 NW5       29.76R
EAGLE RIVER    CLOUDY    62  47  58 W5        29.75R
LAND O LAKES   MOCLDY    63  46  52 NW7       29.77R
PHILLIPS       MOCLDY    64  51  62 W3        29.77R
TOMAHAWK       NOT AVBL
MEDFORD        MOCLDY    63  49  59 NW10G17   29.79R
MERRILL        MOCLDY    65  50  56 NW6       29.76S
$$

WIZ029-030-035-036-043>047-240200-
CENTRAL WISCONSIN

CITY           SKY/WX    TMP DP  RH WIND       PRES   REMARKS
WAUSAU         CLOUDY    66  50  56 W14       29.75R
MOSINEE        MOCLDY    64  52  63 W9        29.78R
MARSHFIELD     CLOUDY    65  50  58 W9        29.78R
STEVENS POINT  PTCLDY    66  50  55 W6        29.77R
WAUPACA        PTCLDY    70  54  56 W7        29.75S
WAUTOMA        MOCLDY    68  55  63 W12G20    29.77R
WISC RAPIDS    MOCLDY    67  52  58 NW9       29.79R
CAMP DOUGLAS   PTCLDY    66  56  69 W9        29.79R
$$

WIZ011>013-019>022-031-037>040-048>050-240200-
NORTHEAST WISCONSIN

CITY           SKY/WX    TMP DP  RH WIND       PRES   REMARKS
ANTIGO         PTCLDY    62  50  64 W9        29.76R
SHAWANO        MOCLDY    69  51  51 W8        29.73R
OCONTO         PTCLDY    69  51  53 W9        29.70R
STURGEON BAY     N/A     69  54  58 W9          N/A
GREEN BAY      PTCLDY    68  55  63 W13       29.72R
MANITOWOC      CLOUDY    71  52  50 NW14      29.71R
APPLETON       MOCLDY    66  48  52 W14       29.73R
CLINTONVILLE   MOCLDY    68  48  49 NW10      29.74R
OSHKOSH        PTCLDY    68  53  58 NW14G22   29.74R
$$

WIZ032>034-041-042-053>061-240200-
SOUTHWEST WISCONSIN

CITY           SKY/WX    TMP DP  RH WIND       PRES   REMARKS
LA CROSSE      MOCLDY    73  54  51 W12       29.81R
SPARTA         MOCLDY    67  55  63 W7        29.82R
VIROQUA        CLEAR     66  54  64 W7        29.83S
BOSCOBEL       CLEAR     71  55  56 W6        29.82R
PRAIRIE DU CHI MOCLDY    70  54  56 W9        29.83R
PLATTEVILLE    CLEAR     69  56  62 W10       29.85R
$$

WIZ056-057-062-063-064-067-068-240200-
SOUTH CENTRAL WISCONSIN

CITY           SKY/WX    TMP DP  RH WIND       PRES   REMARKS
REEDSBURG      CLEAR     67  54  61 W10       29.79S
BARABOO/DELLS  CLEAR     66  53  61 W7        29.80R
LONE ROCK      CLEAR     69  54  58 W10       29.80R
MINERAL POINT  CLEAR     70  54  56 W9        29.83R
MADISON        PTCLDY    69  54  58 NW13G20   29.77R
MIDDLETON      CLEAR     68  53  58 W8        29.80R
WATERTOWN      MOCLDY    69  54  59 NW10      29.76R
MONROE         CLEAR     68  52  56 W10       29.80R
JANESVILLE     PTCLDY    72  52  49 NW13      29.76R
$$

WIZ051-052-058>065-066-070>072-240200-
SOUTHEAST WISCONSIN

CITY           SKY/WX    TMP DP  RH WIND       PRES   REMARKS
MILWAUKEE      MOCLDY    75  53  46 NW16G23   29.72R
WAUKESHA       CLEAR     72  52  49 NW13      29.75R
MILWAUKEE/TIMM CLEAR     72  48  43 NW9G18    29.74R
RACINE         PTCLDY    74  52  46 NW10      29.74R
KENOSHA        PTCLDY    73  53  49 NW14G23   29.74R
FOND DU LAC    PTCLDY    70  52  52 NW13G21   29.74S
SHEBOYGAN      MOCLDY    69  54  58 W9        29.72R
WEST BEND      MOCLDY    68  50  52 NW13G20   29.74R
JUNEAU         PTCLDY    67  53  59 W5        29.77R
$$

LSZ147-162-240200-
LAKE SUPERIOR

STATION/POSITION TIME  TEMP    WIND        PRES    WAVE
                       AIR SEA DIR/SP/G            HT/PER
                 (UTC) (F)     (DEG/KT/KT) (MB)    (FT/S)
W MID LAKE BUOY  2350   47 39  260/ 10/ 10 1005.3R   1/ 4
DEVILS ISLAND    0100   58     250/  9/ 10 1007.0R
SAXON HARBOR     0030   70      CALM  /  2 1006.8R
$$

LMZ867-665-643>646-240200-
LAKE MICHIGAN

STATION/POSITION TIME  TEMP    WIND        PRES    WAVE
                       AIR SEA DIR/SP/G            HT/PER
                 (UTC) (F)     (DEG/KT/KT) (MB)    (FT/S)
CHAMBERS ISLAND  0040   70     310/  2/  6 1004.7R
S GREEN BAY BUOY 0100   70     280/ 14/ 16 1005.4
N MID LAKE BUOY  0050   61 58   20/  6/  8 1005.1R   1
NORTHPORT PIER   0040   71     290/  5/ 10 1004.7R
KEWAUNEE LAKESHO 0048   71     300/  8/ 12 1005.3R
SHEBOYGAN LAKESH 0100   71     300/ 12/ 14 1005.8R
PORT WASHINGTON  0030   74     300/ 10/ 16 1007.1R
ATWATER BUOY     0039   69 60  310/ 12/ 16 1006.9R
MILWAUKEE LAKESH 0050   73     320/ 15/ 19   N/A
S MID LAKE BUOY  0050   68 63  290/  4/  6 1005.8R   0
KENOSHA   LAKESH 0100   74     310/ 14/ 19 1006.4
$$

TC  - TEMPERATURE IN CELSIUS
VSB - VISIBILITY IN STATUTE MILES
WCI - WIND CHILL INDEX
HX  - HEAT INDEX





USA.gov is the U.S. government's official web portal to all federal, state and local government web resources and services.